CZ-3C DEB, 40197

Orbit data source: Space-Track

CZ-3C DEB, 40197 is space debris in HEO originally from a launch on Fri, 24 Feb 2012 UTC launched from the Xichang Space Center, China (XSC). Debris objects in space refer to the collection of defunct objects orbiting the Earth. Examples of debris include non-operational satellites, rocket bodies, and fragments generated from explosions, collisions, or faulty payload assembly.

Loading next visibility...
Identifier
40197, 2012-008G
Orbit
HEO
Country
Flag of CNCN / PRC
Related business
Manufacturer
CALT
Mission
Spacecraft
Bus & Motor
Unknown
Mass
Unknown
Launch date (UTC)
2012-02-24 (14 years ago)
Launch vehicle
Unknown
Launch site
Xichang Space Center, China (XSC)
Object type
Payload
Rocket body
Debris
Shape & HBR
Unknown shape, 0.2 m
Radar Cross Section
Medium (>0.1 m² and <1 m²)

Expand to show TLE details & history
Last TLE update: 1 week ago

TLE from 1 week ago
0 CZ-3C DEB
1 40197U 12008G   25285.24200254 -.00000201  00000-0  00000-0 0  9997
2 40197  20.8613 324.7816 6971855  18.1424 357.8050  2.19803256 95520
Epoch: 2025-10-12T05:48Z
TLE epoch observation values (Epoch: 2025-10-12T05:48:29.019Z)
Latitude
-0.00011°
Longitude
-143.41767°
Altitude
1,337.109 km
Speed
9.347 km/s
True Right ascension
21h 39m 03s
True Declination
0° 00' 00"
Sunlit
Object was in full shadow at epoch
Visualization orbit readout
Latitude
Unknown
Longitude
Unknown
Altitude
Unknown
Speed
Unknown
Apparent Right ascension
Unknown
Apparent Declination
Unknown
Sunlit
N/A
Visualization observer readout
Local Sidereal Time
22:56:28
Azimuth
Unknown
Elevation
Unknown
Doppler factor
Unknown
Orbital elements
Apogee altitude
36,035.874 km
Perigee altitude
1,189.437 km
Semi-major axis
24,990.793 km
Eccentricity
0.69719
Inclination
20.8613°
RAAN
324.7816°
Arg. of periapsis
18.1424°
True anomaly
343.04506°
Mean anomaly
357.805°
Eccentric anomaly
352.79502°
Mean motion
0.54938 °/min
Orbital period
655.28 mins
BSTAR
0
Loading maneuver chart data...
Computing Atmospheric mass density...
Loading historical data...
Loading historical data...
Loading historical data...
Loading historical data...
Loading historical data...
Loading historical data...
Loading historical data...

Documentation

Showing up to 5 results
|